Home   Weather   Yaren   Past weeks

Flag for Nauru Past Weather in Yaren, Nauru — Yesterday and Last 2 Weeks

Now
82 °F

Passing clouds.


Feels Like: 91 °F
Forecast: 79 / 85 °F
Wind: No wind

Location: Betio Village

Current Time: Apr 25, 2017 at 3:27:30 am

Latest Report: Apr 25, 2017 at 3:00 am


Visibility: N/A

Pressure: 29.80 "Hg

Humidity: 84%

Dew Point: 77 °F

Location of YarenLocation

Past Weather in Yaren — Graph

°F

Yaren Temperature Yesterday

Maximum temperature yesterday: 90 °F (at 10:00 am)
Minimum temperature yesterday: 79 °F (at 6:00 am)
Average temperature yesterday: 85 °F

High & Low Weather Summary for the Past Weeks

 TemperatureHumidityPressure
High90 °F (Apr 10, 1:00 pm)94% (Apr 13, 6:00 am)29.89 "Hg (Apr 13, 6:00 am)
Low75 °F (Apr 15, 2:00 am)62% (Apr 16, 11:00 am)29.68 "Hg (Apr 10, 3:00 pm)
Average84 °F80%29.80 "Hg
* Reported Apr 10 2:00 am — Apr 25 2:00 am, Yaren, Weather by CustomWeather, © 2017

Note: Actual official high and low records may vary slightly from our data, if they occured in-between our weather recording intervals... More about our weather records

Advertising

Yaren Weather History for the Previous 24 Hours

Scroll right to see more
 ConditionsComfort  
Time TempWeatherWind HumidityBarometerVisibility
2:00 am
Tue, Apr 25
82 °FPassing clouds.2 mph84%29.83 "HgN/A
1:00 am82 °FPassing clouds.1 mph84%29.83 "HgN/A
12:00 am82 °FPassing clouds.1 mph84%29.86 "HgN/A
11:00 pm
Mon, Apr 24
82 °FPassing clouds.2 mph84%29.86 "HgN/A
10:00 pm82 °FPassing clouds.3 mph84%29.89 "HgN/A
9:00 pm82 °FPassing clouds.8 mph84%29.86 "HgN/A
8:00 pm84 °FPassing clouds.3 mph79%29.83 "HgN/A
7:00 pm84 °FPassing clouds.9 mph79%29.80 "HgN/A
6:00 pm86 °FScattered clouds.8 mph75%29.80 "HgN/A
5:00 pm88 °FPassing clouds.2 mph70%29.77 "HgN/A
4:00 pm90 °FScattered clouds.6 mph67%29.77 "HgN/A
3:00 pm90 °FScattered clouds.3 mph71%29.77 "HgN/A
2:00 pm90 °FScattered clouds.8 mph67%29.80 "HgN/A
1:00 pm90 °FScattered clouds.7 mph67%29.83 "HgN/A
11:00 am88 °FScattered clouds.8 mph70%29.86 "HgN/A
10:00 am90 °FScattered clouds.6 mph67%29.89 "HgN/A
9:00 am86 °FScattered clouds.7 mph79%29.89 "HgN/A
8:00 am84 °FScattered clouds.2 mph79%29.86 "HgN/A
7:00 am81 °FScattered clouds.1 mph89%29.83 "HgN/A
6:00 am79 °FPassing clouds.No wind94%29.83 "HgN/A
5:00 am81 °FPassing clouds.No wind89%29.80 "HgN/A
4:00 am81 °FPassing clouds.No wind89%29.80 "HgN/A
3:00 am82 °FPassing clouds.No wind79%29.77 "HgN/A
Weather by CustomWeather, © 2017

See weather overviewHow to use our weather pages